Theta_e
291 291 289 288 287 287 287 287 287 287 287 288 288 287 287 288 288 288 288 299 304 309 313 315 315 316 317 318 318 319 320 320 321 321 321 322 322 322 323 325 326 327 329
291 290 289 287 286 287 286 286 286 286 286 287 287 287 287 287 287 288 288 290 302 306 310 312 312 314 315 316 318 316 319 321 319 319 319 321 322 324 321 327 326 327 330
290 289 288 286 286 286 286 286 285 285 285 286 285 286 287 287 287 288 288 289 291 300 308 310 311 313 314 315 313 314 314 313 315 316 313 316 319 320 323 323 322 322 325
290 288 287 286 286 285 285 284 284 283 284 284 284 284 285 286 287 288 287 288 290 291 299 304 306 308 308 309 310 309 314 317 313 311 310 314 313 313 314 317 319 318 321
289 289 287 286 285 284 284 284 283 283 282 283 284 284 284 285 286 287 286 287 288 288 288 294 296 298 301 305 308 311 312 310 309 309 311 312 311 310 312 313 314 315 314
289 287 286 285 285 284 283 283 283 283 283 282 284 283 283 284 284 284 284 287 286 287 286 286 286 288 296 300 303 305 307 307 308 308 308 308 308 311 312 313 314 313 312
288 287 286 285 284 284 283 282 282 282 282 282 281 282 282 284 283 283 284 283 284 285 285 285 285 286 288 296 300 303 305 307 307 306 306 307 308 307 308 309 310 311 312
287 287 286 285 284 283 282 282 283 281 281 281 280 280 279 280 283 284 284 283 282 283 284 285 285 285 286 286 292 300 303 304 304 303 303 303 304 305 306 307 308 308 311
287 287 285 285 284 283 283 282 282 282 281 280 280 281 278 278 279 281 282 282 281 282 282 283 284 285 285 285 288 292 297 297 298 299 300 300 301 303 304 305 306 307 309
286 285 285 285 284 283 282 282 282 281 281 280 281 282 280 280 277 277 279 280 281 281 280 282 282 283 284 285 289 292 292 292 293 294 295 297 298 300 301 303 304 305 306
285 285 285 284 283 283 282 282 281 281 281 280 280 280 279 279 279 277 276 278 279 280 280 281 281 282 284 285 285 286 289 289 290 291 292 293 295 296 298 300 301 302 303
284 283 284 283 283 282 281 282 281 281 280 280 280 280 279 278 278 277 276 276 276 278 279 280 280 281 283 283 284 285 286 287 288 289 290 291 292 293 295 296 298 299 300
284 283 283 282 282 282 282 281 281 280 280 280 280 279 280 279 280 279 277 276 276 278 278 279 280 282 281 280 280 282 282 284 286 287 288 289 290 291 292 294 295 296 297
285 284 283 282 282 281 281 281 281 280 280 280 279 279 279 280 280 280 278 277 275 276 277 277 279 279 279 279 279 282 278 281 284 286 287 287 288 289 290 292 293 294 295
285 282 283 282 281 281 281 281 281 280 280 279 279 279 279 279 279 279 279 278 277 273 274 275 276 279 278 278 278 277 277 279 283 284 285 286 287 288 289 290 291 293 294
283 282 282 282 281 281 281 280 280 279 279 278 279 278 278 278 278 279 279 278 277 274 272 275 276 275 276 277 278 277 276 279 279 282 284 285 286 288 289 289 290 291 292
283 281 282 282 281 280 280 280 280 279 279 278 278 278 277 278 277 277 277 276 275 275 271 273 275 274 274 274 275 275 276 276 277 281 283 285 286 287 287 288 288 289 290
282 282 282 281 281 281 280 280 279 279 278 277 277 277 276 277 275 275 274 274 273 274 272 270 272 272 272 273 274 274 275 277 277 280 283 285 285 285 286 286 287 287 288
282 282 282 281 281 280 280 280 279 278 278 277 277 276 275 275 273 273 272 272 272 273 272 270 270 272 272 273 273 274 275 276 278 280 282 282 283 284 284 285 286 286 286
282 281 281 281 280 280 279 279 279 277 277 276 276 276 275 274 274 272 272 271 271 270 270 270 270 270 272 274 274 274 274 276 275 278 279 280 281 282 283 284 284 283 283
282 281 280 280 280 279 279 278 278 277 276 275 275 275 274 275 277 275 272 271 270 268 268 268 270 271 272 273 273 274 273 274 275 276 277 277 278 278 279 281 281 282 283
281 280 280 280 278 279 283 283 280 277 276 275 273 273 273 275 277 279 278 276 273 267 262 265 271 272 273 273 274 273 273 273 271 276 275 273 275 275 276 277 280 282 284
280 280 280 279 279 279 284 285 284 278 277 275 274 273 273 274 274 276 279 278 277 278 274 272 272 273 273 274 274 274 274 274 273 274 272 270 273 272 275 276 279 281 282
279 279 279 279 279 279 284 286 284 278 277 275 274 274 273 273 274 274 275 276 276 276 276 276 274 274 274 275 276 276 274 270 271 272 273 268 272 271 273 274 278 280 280
279 280 280 279 279 279 283 286 284 276 276 275 274 274 274 273 276 278 273 272 273 274 277 279 279 280 280 280 278 270 264 261 264 268 271 269 270 270 272 272 274 278 279
279 279 279 279 279 278 282 286 284 275 274 273 274 274 276 275 278 279 272 271 269 272 273 271 274 275 275 273 274 272 266 259 263 262 272 269 269 269 267 271 273 273 273
Wind_Speed
5 5 5 4 4 3 4 4 4 4 4 4 3 5 4 4 5 2 2 9 10 10 10 10 9 10 10 11 10 10 11 11 11 11 12 11 14 15 14 14 13 13 15
6 5 5 4 4 4 3 3 3 4 3 3 4 4 4 3 4 4 3 4 11 11 11 11 11 11 11 10 11 14 14 16 16 15 14 15 17 14 11 15 17 16 16
7 7 5 5 4 3 5 4 3 3 3 2 3 3 3 3 3 5 4 3 5 11 12 14 15 14 15 15 12 14 15 12 11 18 17 15 16 18 15 15 15 18 18
8 7 6 5 5 4 4 4 3 2 3 2 1 3 3 3 4 5 5 4 4 5 12 18 17 17 16 14 14 12 12 18 17 17 15 13 17 18 18 19 16 17 18
9 8 6 5 6 5 4 4 2 2 2 1 2 4 4 4 4 3 6 6 7 6 5 13 16 17 15 15 15 15 17 15 16 15 14 17 18 16 15 14 14 16 18
10 8 6 7 6 5 4 3 3 3 2 1 2 4 4 3 3 4 5 4 5 6 5 6 5 6 16 14 14 13 14 13 14 15 16 16 16 16 16 17 18 18 19
10 9 6 7 6 7 6 5 4 4 1 1 3 3 4 4 5 4 3 4 5 5 5 5 4 4 5 15 15 14 13 14 15 15 15 15 17 16 17 16 17 18 17
11 10 10 9 9 6 7 7 6 4 2 1 4 2 2 2 2 2 2 3 4 3 5 5 6 6 5 4 10 15 16 18 19 19 18 18 19 19 18 18 18 18 18
13 12 12 10 10 8 8 7 6 7 5 1 3 5 3 3 1 1 1 1 3 3 3 3 4 4 4 4 6 8 16 18 18 19 20 21 21 21 21 21 21 21 20
14 13 13 11 11 7 7 7 5 4 5 5 2 2 4 4 4 1 1 2 2 1 3 3 2 3 4 4 7 12 16 17 18 18 18 19 20 22 22 22 21 22 21
11 12 12 11 10 8 7 9 7 7 4 5 4 4 2 3 3 3 3 3 2 1 2 3 3 2 4 4 5 10 16 17 17 17 19 20 19 20 21 22 21 21 22
8 10 12 12 11 10 10 9 7 8 6 4 4 4 5 5 4 4 2 2 2 3 1 1 1 3 4 4 9 13 14 17 17 18 17 18 19 19 19 20 21 22 22
9 12 14 12 10 11 10 9 8 7 7 5 6 4 3 4 4 3 3 2 1 2 2 1 1 4 4 3 4 9 12 14 15 16 17 18 18 18 19 19 20 21 21
12 12 12 11 11 10 9 9 7 6 6 5 8 5 4 4 3 4 5 5 1 2 2 3 1 3 3 3 3 11 4 13 14 16 16 17 17 18 19 19 20 21 21
9 13 15 13 12 13 13 12 9 9 8 6 6 6 4 4 4 4 3 4 5 4 3 3 4 4 3 2 4 3 4 12 18 16 17 17 18 18 19 19 20 22 24
11 13 15 15 14 12 12 13 9 9 11 8 7 9 6 5 6 4 4 3 2 3 2 1 2 1 2 3 7 7 7 14 14 16 18 19 19 20 21 22 23 23 24
13 15 16 16 16 16 15 14 12 12 13 11 8 10 9 8 6 6 5 3 4 3 3 2 2 3 4 3 8 8 10 9 7 17 20 20 21 23 23 24 24 25 27
13 15 15 16 16 17 16 17 16 14 15 14 13 11 10 7 8 7 6 7 6 5 3 4 1 2 4 4 8 7 7 7 8 14 20 25 25 24 25 26 27 26 27
14 15 16 18 19 18 18 17 16 16 16 14 14 14 12 12 10 8 7 7 5 5 5 4 3 3 4 4 5 7 6 5 5 14 19 20 21 22 24 27 28 29 29
13 15 16 17 16 18 18 18 17 15 15 13 14 13 13 15 13 11 9 9 7 7 5 5 5 4 5 6 4 5 6 5 7 9 13 13 17 19 22 26 27 28 29
15 13 13 14 15 16 15 19 18 18 16 14 13 13 13 13 20 16 10 10 9 7 4 4 4 3 4 2 4 4 7 8 8 7 6 5 9 10 12 19 21 25 28
13 13 16 16 16 13 26 32 23 17 17 17 15 12 11 14 19 22 20 19 15 10 6 4 4 4 2 3 3 5 7 9 7 1 11 12 10 10 11 10 21 28 31
13 15 16 16 18 17 29 31 30 16 17 17 17 15 12 10 12 13 20 20 18 19 12 9 6 4 3 4 5 7 8 8 8 10 12 12 9 11 10 11 24 29 31
13 14 15 16 16 16 31 31 30 15 15 16 17 17 16 16 16 16 14 13 11 9 6 4 3 4 4 6 7 5 7 7 9 8 8 11 7 12 10 9 28 32 31
10 13 13 15 18 16 30 31 29 15 15 16 15 17 16 15 23 26 13 12 10 9 11 14 13 14 10 11 8 2 2 3 6 3 5 8 5 14 12 13 12 23 27
11 8 11 12 14 13 26 31 28 11 14 12 13 15 23 19 27 28 14 14 12 10 9 4 1 4 2 4 10 4 3 3 5 5 2 5 10 9 10 3 7 13 12
Wind_Direction
164 149 155 156 152 149 150 148 143 125 105 97 82 73 54 39 31 32 17 25 37 41 45 51 53 49 44 43 42 40 40 41 36 29 28 19 20 8 1 1 360 354 350
156 162 158 166 166 164 149 145 139 113 84 67 53 50 56 45 42 39 36 18 44 44 43 54 48 52 48 50 46 38 35 33 30 26 22 21 20 12 9 28 17 10 4
167 162 160 167 171 159 145 141 113 104 109 105 86 57 54 36 59 61 53 45 39 46 55 57 50 49 48 41 28 38 28 24 29 38 20 15 25 10 17 20 8 6 2
166 161 160 172 157 161 161 153 142 126 108 84 41 40 53 52 60 72 58 50 55 48 50 59 50 45 38 29 22 20 27 40 27 16 8 9 28 9 0 1 6 4 359
171 166 167 162 158 158 170 159 132 134 130 67 38 41 41 51 62 60 61 60 60 60 51 38 41 37 33 29 21 24 28 20 15 11 16 22 15 360 359 360 354 3 359
174 163 161 159 156 155 171 166 140 72 118 110 84 78 58 77 67 74 87 76 65 59 47 39 34 29 32 30 34 30 28 24 21 19 15 12 5 5 4 2 5 349 354
175 173 165 160 164 174 176 165 127 142 91 83 115 56 46 74 61 49 80 58 60 43 42 38 36 31 21 33 33 35 33 32 29 24 19 15 10 3 359 355 344 346 341
174 174 173 177 175 163 169 177 161 144 128 67 131 103 98 353 34 63 119 76 77 52 41 44 38 31 31 25 33 38 38 33 24 15 7 0 357 354 349 345 341 340 337
179 178 177 174 177 175 183 183 172 167 146 79 86 140 114 211 41 316 305 63 53 52 44 42 51 46 51 50 43 34 40 23 15 5 359 354 350 346 343 342 340 334 332
181 178 177 178 179 179 175 180 172 175 135 155 117 80 79 137 165 257 295 276 314 23 22 354 15 69 90 92 66 51 27 12 2 358 354 349 345 341 337 334 332 330 327
186 182 179 175 177 180 177 171 170 176 178 147 148 152 100 54 68 126 222 305 357 274 333 323 331 27 58 74 60 28 16 5 354 349 346 342 339 335 331 328 326 322 316
181 188 182 183 182 177 176 181 177 174 175 157 154 161 160 163 181 158 171 226 244 293 298 311 102 94 75 57 42 22 6 351 346 342 340 336 331 328 325 323 320 317 314
191 200 190 185 183 181 178 168 173 174 171 174 172 181 156 157 135 127 113 112 167 306 320 321 114 128 105 81 38 13 345 340 335 333 332 329 328 326 324 321 318 316 313
189 176 189 189 187 178 174 171 172 173 164 171 175 167 157 159 143 144 148 143 157 293 254 207 104 127 116 99 18 349 308 326 323 327 327 325 323 324 322 320 318 315 311
182 170 179 182 184 181 176 173 178 175 170 169 176 164 158 165 155 146 137 147 152 182 263 210 164 166 143 170 327 333 319 319 322 324 323 321 321 320 322 319 316 314 312
174 175 180 184 181 188 181 177 178 171 172 175 172 169 168 159 159 154 162 141 133 139 197 243 318 56 46 343 330 333 314 318 312 316 320 317 318 319 321 319 316 313 311
178 179 184 187 186 185 187 185 184 175 183 175 170 174 173 160 160 152 149 151 155 148 164 315 293 339 342 333 321 319 314 310 302 312 314 314 315 319 318 315 313 312 311
185 186 184 185 190 191 188 190 185 183 182 181 174 173 173 163 162 159 161 169 168 172 147 195 232 262 251 258 276 270 265 270 276 293 306 313 318 316 317 314 313 310 308
194 191 188 191 191 191 189 194 189 184 188 186 175 176 170 166 172 173 170 168 171 173 178 167 212 223 250 261 271 254 248 260 276 299 298 304 304 306 307 306 306 306 303
200 201 199 196 197 191 191 191 184 186 185 185 174 178 171 177 176 172 176 172 168 175 170 190 217 229 228 239 243 287 316 316 315 293 295 299 302 302 300 298 297 295 293
198 200 204 201 195 196 194 188 187 183 181 175 174 178 177 173 175 177 172 181 173 170 165 182 217 209 226 271 320 322 317 316 315 283 309 311 309 301 292 296 293 292 288
204 197 200 198 200 199 203 196 187 182 180 179 174 176 171 173 185 186 191 190 184 173 164 176 192 203 256 284 312 315 314 327 344 210 330 308 304 294 289 289 292 291 289
198 205 207 201 203 207 204 199 195 185 182 181 171 172 169 173 175 179 191 192 195 199 183 180 196 197 216 251 287 303 304 307 293 305 313 295 300 284 287 289 291 292 291
211 205 208 207 203 208 204 198 195 192 184 181 175 174 174 171 180 180 184 191 194 196 205 218 193 213 214 255 242 288 319 309 295 289 297 284 308 288 290 288 292 294 294
227 218 213 207 204 209 204 195 188 187 187 179 173 172 173 174 184 186 174 179 189 202 214 222 223 236 255 290 302 358 304 349 297 301 303 279 292 301 295 284 274 282 295
229 219 222 215 216 203 203 198 187 182 180 172 174 177 178 176 185 188 176 178 184 193 193 190 175 270 269 282 296 284 169 181 273 311 134 317 309 322 311 240 291 296 280